Nassau, Bahamas

2:31 AM EDT on October 19, 2017 (GMT -0400)
Nassau

Weather History for 78073 - December, 2012

Change the Weather History Date:

Monday, December 31, 2012

  Actual Average Record
Temperature  
Mean Temperature 71 °F -  
Max Temperature 76 °F 77 °F - ()
Min Temperature 66 °F 62 °F - ()
Cooling Degree Days 6    
Growing Degree Days 21 (Base 50)    
Moisture  
Dew Point 58 °F    
Average Humidity 64    
Maximum Humidity 73    
Minimum Humidity 53    
Precipitation  
Precipitation 0.00 in 0.06 in - ()
Sea Level Pressure  
Sea Level Pressure 30.22 in    
Wind  
Wind Speed 10 mph ()    
Max Wind Speed 15 mph    
Max Gust Speed -    
Visibility 6.8 miles    
Events      
T = Trace of Precipitation, MM = Missing Value Source: Averaged Metar Reports

Daily Weather History Graph

Daily Weather History Graph

Search for Another Location

Airport or City:

Trip Planner

Search our weather history database for the weather conditions in past years. The results will help you decide how hot, cold, wet, or windy it might be!

Date:

Astronomy

Dec. 31, 2012 Rise Set
Actual Time 6:54 AM EST 5:31 PM EST
Civil Twilight 6:29 AM EST 5:56 PM EST
Nautical Twilight 6:01 AM EST 6:24 PM EST
Astronomical Twilight 5:33 AM EST 6:52 PM EST
Moon 8:38 PM EST (12/31) 8:54 AM EST (12/31)
Length of Visible Light 11h 26m
Length of Day
10h 36m
Waning Gibbous, 90% of the Moon is Illuminated
Dec 31
Waning Gibbous
Jan 4
Last Quarter
Jan 11
New
Jan 18
First Quarter
Jan 26
Full

Hourly Weather History & Observations

Time (EST) Temp. Dew Point Humidity Pressure Visibility Wind Dir Wind Speed Gust Speed Precip Events Conditions
12:00 AM 68.0 °F 57.2 °F 68% 30.24 in 6.2 mi NNE 13.8 mph - N/A   Mostly Cloudy
1:00 AM 68 °F 58 °F 61% 29.94 in 9 mi NNE 15.0 mph - -   Mostly Cloudy
1:00 AM 68.0 °F 57.2 °F 68% 30.24 in 6.2 mi NNE 15.0 mph - N/A   Mostly Cloudy
2:00 AM 68.0 °F 57.2 °F 68% 30.24 in 6.2 mi NNE 11.5 mph - N/A   Mostly Cloudy
3:00 AM 68.0 °F 57.2 °F 68% 30.22 in 6.2 mi NNE 13.8 mph - N/A   Mostly Cloudy
4:00 AM 67 °F 57 °F 63% 30.23 in 9 mi NNE 6.9 mph - -   Partly Cloudy
4:00 AM 68.0 °F 57.2 °F 68% 30.23 in 6.2 mi NNE 6.9 mph - N/A   Scattered Clouds
5:00 AM 68.0 °F 57.2 °F 68% - 6.2 mi NE 5.8 mph - N/A   Mostly Cloudy
6:00 AM 68.0 °F 57.2 °F 68% 30.23 in 6.2 mi NNE 6.9 mph - N/A   Mostly Cloudy
7:00 AM 68 °F 58 °F 61% 30.24 in 9 mi NE 11.5 mph - -   Mostly Cloudy
7:00 AM 68.0 °F 57.2 °F 68% 30.24 in 6.2 mi NE 11.5 mph - N/A   Scattered Clouds
8:00 AM 68.0 °F 57.2 °F 68% 30.24 in 6.2 mi NE 8.1 mph - N/A   Scattered Clouds
9:00 AM 69.8 °F 57.2 °F 64% 30.26 in 6.2 mi NE 11.5 mph - N/A   Scattered Clouds
10:00 AM 73 °F 59 °F 53% 30.28 in - NE 11.5 mph - -   Mostly Cloudy
10:00 AM 73.4 °F 59.0 °F 61% 30.26 in 6.2 mi NE 11.5 mph - N/A   Mostly Cloudy
11:00 AM 71.6 °F 59.0 °F 64% 30.28 in 6.2 mi ENE 11.5 mph - N/A   Mostly Cloudy
12:00 PM 71.6 °F 57.2 °F 60% 30.26 in 6.2 mi ENE 12.7 mph - N/A   Mostly Cloudy
1:00 PM 73 °F 60 °F 54% 30.24 in 9 mi ENE 10.4 mph - -   Mostly Cloudy
1:00 PM 73.4 °F 64.4 °F 73% 30.24 in 6.2 mi ENE 10.4 mph - N/A   Mostly Cloudy
2:00 PM 71.6 °F 59.0 °F 64% 30.22 in 6.2 mi NE 11.5 mph - N/A   Mostly Cloudy
3:00 PM 71.6 °F 59.0 °F 64% 30.22 in 6.2 mi NE 10.4 mph - N/A   Mostly Cloudy
4:00 PM 73 °F 60 °F 54% 30.22 in 9 mi NE 9.2 mph - -   Mostly Cloudy
4:00 PM 73.4 °F 59.0 °F 61% 30.22 in 6.2 mi NE 9.2 mph - N/A   Mostly Cloudy
5:00 PM 71.6 °F 57.2 °F 60% 30.21 in 6.2 mi East 10.4 mph - N/A   Partly Cloudy
6:00 PM 69.8 °F 57.2 °F 64% 30.22 in 6.2 mi NE 6.9 mph - N/A   Partly Cloudy
7:00 PM 71 °F 60 °F 59% 30.22 in 9 mi East 8.1 mph - -   Scattered Clouds
7:00 PM 71.6 °F 59.0 °F 64% 30.22 in 6.2 mi East 8.1 mph - N/A   Partly Cloudy
8:00 PM 69.8 °F 59.0 °F 68% 30.21 in 6.2 mi East 8.1 mph - N/A   Partly Cloudy
9:00 PM 69.8 °F 59.0 °F 68% 30.22 in 6.2 mi NE 5.8 mph - N/A   Partly Cloudy
10:00 PM 69.8 °F 59.0 °F 68% 30.22 in 6.2 mi ENE 4.6 mph - N/A   Mostly Cloudy
11:00 PM 69.8 °F 59.0 °F 68% 30.19 in 6.2 mi ENE 6.9 mph - N/A   Mostly Cloudy